Location: Camps Bay
(33.9517°S, 18.3844°E)
Time: 06:43:38
(UTC+00:00)

Cosmos 1538 Rocket - Pass Details

Date: 18 January 2020
Orbit: 753 x 791 km, 74.0° (Epoch: 24 February)

Event Time Altitude Azimuth Distance (km) Brightness Sun altitude
Rises 02:51:41 0° 200° (SSW) 3,300 7.5 -11.8°
Reaches altitude 10° 02:54:05 10° 202° (SSW) 2,370 6.7 -11.4°
Maximum altitude 02:59:27 70° 284° (WNW) 848 4.0 -10.5°
Drops below altitude 10° 03:04:47 10° 7° (N) 2,353 6.3 -9.6°
Sets 03:07:10 0° 9° (N) 3,275 7.0 -9.2°
